Winnemucca, NV

9:26 PM PDT on September 25, 2016 (GMT -0700)
Winnemucca Municipal

Weather History for KWMC - November, 2012

Change the Weather History Date:

Wednesday, November 21, 2012

  Actual Average Record
Temperature  
Mean Temperature 45 °F 35 °F  
Max Temperature 60 °F 49 °F 70 °F (1924)
Min Temperature 29 °F 21 °F -5 °F (1961)
Degree Days  
Heating Degree Days 20 30  
Month to date heating degree days 484 557  
Since 1 July heating degree days 1023 1282  
Cooling Degree Days 0 0  
Month to date cooling degree days 0 0  
Year to date cooling degree days 681 541  
Moisture  
Dew Point 30 °F    
Average Humidity 56    
Maximum Humidity 78    
Minimum Humidity 33    
Precipitation  
Precipitation T in 0.03 in 0.59 in (1900)
Month to date precipitation 0.09 0.60  
Year to date precipitation 4.03 7.07  
Snow  
Snow 0.00 in 0.10 in 6.90 in (1947)
Month to date snowfall T 1.7  
Since 1 July snowfall 1.3 2.2  
Since 1 September snowfall 1.3 2.2  
Snow Depth 0.00 in    
Sea Level Pressure  
Sea Level Pressure 29.98 in    
Wind  
Wind Speed 12 mph (WSW)    
Max Wind Speed 21 mph    
Max Gust Speed 28 mph    
Visibility 10 miles    
Events Rain    
T = Trace of Precipitation, MM = Missing Value Source: NWS Daily Summary

Daily Weather History Graph

Daily Weather History Graph

Search for Another Location

Airport or City:

Trip Planner

Search our weather history database for the weather conditions in past years. The results will help you decide how hot, cold, wet, or windy it might be!

Date:

Astronomy

Nov. 21, 2012 Rise Set
Actual Time 6:46 AM PST 4:28 PM PST
Civil Twilight 6:16 AM PST 4:57 PM PST
Nautical Twilight 5:42 AM PST 5:31 PM PST
Astronomical Twilight 5:09 AM PST 6:04 PM PST
Moon 12:49 PM PST (11/21) 12:07 AM PST (11/21)
Length of Visible Light 10h 41m
Length of Day
9h 41m
Waxing Gibbous, 63% of the Moon is Illuminated
Nov 21
Waxing Gibbous
Nov 28
Full
Dec 6
Last Quarter
Dec 13
New
Dec 19
First Quarter

Hourly Weather History & Observations

Time (PST) Temp. Windchill Dew Point Humidity Pressure Visibility Wind Dir Wind Speed Gust Speed Precip Events Conditions
12:56 AM 51.1 °F - 28.9 °F 43% 29.82 in 10.0 mi South 11.5 mph - N/A   Overcast
1:56 AM 50.0 °F - 28.9 °F 44% 29.83 in 10.0 mi SSW 6.9 mph - N/A   Overcast
2:56 AM 53.1 °F - 30.0 °F 41% 29.82 in 10.0 mi South 12.7 mph - N/A   Overcast
3:56 AM 53.1 °F - 28.9 °F 40% 29.83 in 10.0 mi South 9.2 mph - N/A   Overcast
4:56 AM 54.0 °F - 30.0 °F 40% 29.84 in 10.0 mi South 12.7 mph - N/A   Overcast
5:56 AM 52.0 °F - 32.0 °F 47% 29.86 in 10.0 mi SSW 10.4 mph - N/A   Overcast
6:56 AM 51.1 °F - 34.0 °F 52% 29.88 in 10.0 mi SSW 11.5 mph 21.9 mph 0.00 in Rain Light Rain
7:56 AM 50.0 °F - 33.1 °F 52% 29.90 in 10.0 mi SW 11.5 mph 23.0 mph 0.00 in   Clear
8:56 AM 53.1 °F - 35.1 °F 50% 29.91 in 10.0 mi SW 11.5 mph - N/A   Overcast
9:56 AM 55.0 °F - 34.0 °F 45% 29.94 in 10.0 mi WSW 17.3 mph 27.6 mph N/A   Overcast
10:56 AM 55.9 °F - 34.0 °F 44% 29.94 in 10.0 mi WSW 20.7 mph 27.6 mph N/A   Overcast
11:56 AM 57.9 °F - 34.0 °F 41% 29.92 in 10.0 mi SW 16.1 mph 25.3 mph N/A   Mostly Cloudy
12:56 PM 59.0 °F - 33.1 °F 38% 29.92 in 10.0 mi West 20.7 mph 25.3 mph N/A   Scattered Clouds
1:56 PM 57.9 °F - 32.0 °F 37% 29.94 in 10.0 mi West 17.3 mph 25.3 mph N/A   Mostly Cloudy
2:56 PM 57.0 °F - 28.9 °F 34% 29.96 in 10.0 mi West 16.1 mph 25.3 mph N/A   Mostly Cloudy
3:56 PM 53.1 °F - 26.1 °F 35% 29.98 in 10.0 mi West 18.4 mph 25.3 mph N/A   Partly Cloudy
4:56 PM 48.0 °F - 26.1 °F 42% 30.03 in 10.0 mi SSE 5.8 mph - N/A   Scattered Clouds
5:56 PM 45.0 °F 40.6 °F 30.0 °F 56% 30.07 in 10.0 mi NNW 8.1 mph - N/A   Clear
6:56 PM 44.1 °F 37.4 °F 30.9 °F 60% 30.10 in 10.0 mi NW 13.8 mph 20.7 mph N/A   Clear
7:56 PM 44.1 °F 40.1 °F 28.9 °F 55% 30.15 in 10.0 mi NNW 6.9 mph - N/A   Mostly Cloudy
8:56 PM 34.0 °F 28.0 °F 27.0 °F 75% 30.19 in 10.0 mi West 6.9 mph - N/A   Partly Cloudy
9:56 PM 37.0 °F 31.6 °F 27.0 °F 67% 30.21 in 10.0 mi North 6.9 mph - N/A   Clear
10:56 PM 30.9 °F 26.2 °F 25.0 °F 79% 30.24 in 10.0 mi WSW 4.6 mph - N/A   Clear
11:56 PM 28.9 °F 21.9 °F 24.1 °F 82% 30.25 in 10.0 mi West 6.9 mph - N/A   Clear